Погода в Навале

Филиппины     11°35′48″N   124°23′41″E
темп.,
°C
ветер,
м/с
пор.,
м/с
влажн.,
%
обл.,
%
осадки,
мм/ч
давл.,
гПа
погр.,
м
14 мая, пт
пт1423:00+24всв359333 0.2 1010304
02:00+24всв359338 0.4 1008299
05:00+24всв359269 0.3 1009323
08:00+27всв367810 0.5 1010736
11:00+29в4672100 0.9 10091038
14:00+30в476614 1.6 10071074
17:00+27в468040 1.3 1008546
20:00+26в368691 1.4 1010376
15 мая, сб
сб1523:00+25в359016 0.0 1010312
02:00+25в359148 0.0 1009281
05:00+25в359175 0.0 1009285
08:00+27в3679100 0.1 1010709
11:00+29в357089 0.4 1010965
14:00+30в4564100 1.7 10081043
17:00+27в467777 1.5 1008567
20:00+25в358899 1.6 1010288
16 мая, вс
вс1623:00+25в359070 0.0 1010290
02:00+25всв3592100 0.1 1008255
05:00+24в359251 0.2 1009277
08:00+27в368093 0.3 1011721
11:00+29в467098 0.4 1010959
14:00+27в3579100 0.4 1008566
17:00+26всв3586100 0.1 1008432
20:00+25в358680 0.1 1010320
17 мая, пн
пн1723:00+25всв349129 0.1 1010214
02:00+24всв249391 0.3 1008198
05:00+24всв349491 0.4 1009223
08:00+28всв357894 0.5 1010723
11:00+30в356449 0.1 10091161
14:00+32в355769 0.2 10071351
17:00+29в2573100 0.3 1007500
20:00+26всв3588100 0.4 1009268
18 мая, вт
вт1823:00+25всв3492100 0.2 1009263
02:00+25всв3493100 0.7 1008223
05:00+24всв2494100 0.7 1008199
08:00+27в3681100 0.9 1010589
11:00+29в356999 0.3 1009907
14:00+30всв356699 1.3 1007942
17:00+27всв357887 0.6 1007529
20:00+25в3589100 0.9 1009321